Location: Unspecified
(0.0000°N, 0.0000°E)
Time: 18:48:40
(UTC+00:00)

A-11 Canister half - Pass Details

Date: 24 November 2019
Orbit: 1515 x 1685 km, 47.2° (Epoch: 05 December)

Event Time Altitude Azimuth Distance (km) Brightness Sun altitude
Rises 03:05:29 0° 291° (WNW) 4,833 - -37.3°
Reaches altitude 10° 03:09:28 10° 278° (W) 3,820 - -36.4°
Maximum altitude 03:16:44 24° 228° (SW) 2,832 - -34.7°
Exits shadow 03:17:51 23° 218° (SW) 2,852 10.2 -34.5°
Drops below altitude 10° 03:23:52 10° 178° (S) 3,726 11.3 -33.1°
Sets 03:27:46 0° 165° (SSE) 4,689 12.0 -32.2°
